Rochelle, IL

3:31 PM CST on January 22, 2018 (GMT -0600)
Rochelle

Weather History for KRPJ - January, 2013

Change the Weather History Date:

Sunday, January 6, 2013

  Actual Average (KRFD) Record (KRFD)
Temperature  
Mean Temperature 23 °F -  
Max Temperature 34 °F 25 °F 60 °F (2008)
Min Temperature 10 °F 12 °F -19 °F (1988)
Degree Days  
Heating Degree Days 42    
Moisture  
Dew Point 20 °F    
Average Humidity 86    
Maximum Humidity 96    
Minimum Humidity 72    
Precipitation  
Precipitation 0.00 in - - ()
Sea Level Pressure  
Sea Level Pressure 30.13 in    
Wind  
Wind Speed 14 mph (West)    
Max Wind Speed 21 mph    
Max Gust Speed 26 mph    
Visibility 9 miles    
Events      
Averages and records for this station are not official NWS values.
T = Trace of Precipitation, MM = Missing Value Source: NWS Daily Summary

Daily Weather History Graph

Daily Weather History Graph

Search for Another Location

Airport or City:

Trip Planner

Search our weather history database for the weather conditions in past years. The results will help you decide how hot, cold, wet, or windy it might be!

Date:

Astronomy

Jan. 06, 2013 Rise Set
Actual Time 7:24 AM CST 4:40 PM CST
Civil Twilight 6:52 AM CST 5:12 PM CST
Nautical Twilight 6:17 AM CST 5:47 PM CST
Astronomical Twilight 5:44 AM CST 6:20 PM CST
Moon 1:36 AM CST (1/6) 12:09 PM CST (1/6)
Length of Visible Light 10h 19m
Length of Day
9h 16m
Waning Crescent, 33% of the Moon is Illuminated
Jan 6
Waning Crescent
Jan 11
New
Jan 18
First Quarter
Jan 26
Full
Feb 3
Last Quarter

Hourly Weather History & Observations

Time (CST) Temp. Windchill Dew Point Humidity Pressure Visibility Wind Dir Wind Speed Gust Speed Precip Events Conditions
12:15 AM 34.2 °F 23.6 °F 32.2 °F 92% 29.92 in 7.0 mi SW 17.3 mph 23.0 mph N/A   Overcast
12:35 AM 34.0 °F 23.8 °F 32.2 °F 93% 29.92 in 7.0 mi WSW 16.1 mph 20.7 mph N/A   Overcast
12:55 AM 34.0 °F 23.4 °F 32.2 °F 93% 29.91 in 7.0 mi WSW 17.3 mph - N/A   Overcast
1:15 AM 34.0 °F 22.7 °F 32.2 °F 93% 29.92 in 7.0 mi WSW 19.6 mph 25.3 mph N/A   Overcast
1:35 AM 33.6 °F 23.7 °F 32.0 °F 94% 29.92 in 7.0 mi WSW 15.0 mph - N/A   Overcast
1:55 AM 32.9 °F 23.7 °F 31.8 °F 96% 29.92 in 5.0 mi WSW 12.7 mph - N/A   Overcast
2:15 AM 30.7 °F 18.5 °F 27.3 °F 87% 29.93 in 10.0 mi West 19.6 mph 23.0 mph N/A   Scattered Clouds
2:35 AM 28.8 °F 16.2 °F 25.5 °F 88% 29.94 in 10.0 mi West 18.4 mph 24.2 mph N/A   Clear
2:55 AM 27.3 °F 14.0 °F 23.9 °F 87% 29.95 in 10.0 mi West 19.6 mph 26.5 mph N/A   Clear
3:15 AM 26.4 °F 14.0 °F 23.2 °F 88% 29.95 in 10.0 mi West 16.1 mph 24.2 mph N/A   Clear
3:35 AM 25.7 °F 15.1 °F 22.1 °F 86% 29.95 in 10.0 mi West 11.5 mph 23.0 mph N/A   Clear
4:15 AM 24.8 °F 11.9 °F 21.2 °F 86% 29.97 in 10.0 mi West 16.1 mph 21.9 mph N/A   Mostly Cloudy
4:35 AM 23.9 °F 9.1 °F 20.1 °F 85% 29.97 in 10.0 mi West 20.7 mph 26.5 mph N/A   Mostly Cloudy
4:55 AM 23.4 °F 9.6 °F 20.3 °F 88% 29.98 in 10.0 mi West 17.3 mph 23.0 mph N/A   Mostly Cloudy
5:15 AM 22.1 °F 8.0 °F 18.5 °F 86% 29.99 in 10.0 mi West 17.3 mph - N/A   Overcast
5:35 AM 21.2 °F 8.3 °F 18.0 °F 87% 30.00 in 10.0 mi West 13.8 mph - N/A   Scattered Clouds
5:55 AM 20.7 °F 6.6 °F 17.4 °F 87% 30.00 in 10.0 mi West 16.1 mph 20.7 mph N/A   Scattered Clouds
6:15 AM 19.6 °F 6.2 °F 16.3 °F 87% 30.01 in 10.0 mi West 13.8 mph - N/A   Clear
6:35 AM 19.0 °F 4.5 °F 16.0 °F 88% 30.02 in 10.0 mi West 16.1 mph - N/A   Clear
6:55 AM 18.5 °F 3.8 °F 15.6 °F 89% 30.02 in 10.0 mi West 16.1 mph - N/A   Scattered Clouds
7:15 AM 18.3 °F 4.6 °F 15.4 °F 89% 30.04 in 10.0 mi West 13.8 mph - N/A   Overcast
7:35 AM 18.1 °F 5.6 °F 15.3 °F 88% 30.04 in 10.0 mi West 11.5 mph - N/A   Mostly Cloudy
7:55 AM 18.5 °F 4.9 °F 15.4 °F 88% 30.06 in 10.0 mi West 13.8 mph - N/A   Scattered Clouds
8:35 AM 18.5 °F 3.8 °F 15.4 °F 88% 30.08 in 10.0 mi WNW 16.1 mph - N/A   Clear
8:55 AM 19.6 °F 4.7 °F 16.0 °F 86% 30.09 in 10.0 mi WNW 17.3 mph - N/A   Clear
9:15 AM 20.5 °F 5.9 °F 16.9 °F 86% 30.10 in 10.0 mi WNW 17.3 mph 23.0 mph N/A   Clear
9:35 AM 21.2 °F 7.3 °F 17.1 °F 84% 30.11 in 10.0 mi WNW 16.1 mph - N/A   Scattered Clouds
9:55 AM 22.8 °F 10.9 °F 18.3 °F 83% 30.13 in 10.0 mi WNW 12.7 mph - N/A   Mostly Cloudy
10:15 AM 23.7 °F 14.0 °F 19.0 °F 82% 30.13 in 10.0 mi NW 9.2 mph - N/A   Overcast
10:35 AM 24.8 °F 13.4 °F 20.3 °F 83% 30.14 in 7.0 mi NW 12.7 mph 17.3 mph N/A   Overcast
10:55 AM 25.5 °F 14.9 °F 20.7 °F 82% 30.13 in 10.0 mi WNW 11.5 mph - N/A   Overcast
11:15 AM 26.4 °F 14.0 °F 21.2 °F 81% 30.14 in 10.0 mi WNW 16.1 mph 19.6 mph N/A   Overcast
11:35 AM 26.6 °F 14.3 °F 21.4 °F 81% 30.14 in 10.0 mi WNW 16.1 mph - N/A   Overcast
11:55 AM 27.5 °F 15.0 °F 21.7 °F 79% 30.15 in 10.0 mi WNW 17.3 mph - N/A   Mostly Cloudy
12:15 PM 28.9 °F 17.3 °F 22.1 °F 76% 30.15 in 10.0 mi NW 16.1 mph - N/A   Scattered Clouds
12:35 PM 29.3 °F 17.3 °F 22.3 °F 75% 30.15 in 10.0 mi WNW 17.3 mph - N/A   Clear
12:55 PM 30.0 °F 18.7 °F 22.1 °F 72% 30.15 in 10.0 mi NW 16.1 mph 20.7 mph N/A   Clear
1:15 PM 30.0 °F 20.0 °F 22.3 °F 73% 30.16 in 10.0 mi NW 12.7 mph 18.4 mph N/A   Scattered Clouds
1:35 PM 30.2 °F 20.8 °F 22.5 °F 73% 30.16 in 10.0 mi WNW 11.5 mph - N/A   Scattered Clouds
1:55 PM 30.4 °F 20.5 °F 22.3 °F 72% 30.19 in 10.0 mi NW 12.7 mph - N/A   Scattered Clouds
2:15 PM 29.5 °F 19.9 °F 22.1 °F 74% 30.19 in 10.0 mi NW 11.5 mph 19.6 mph N/A   Mostly Cloudy
2:35 PM 29.3 °F 20.2 °F 21.6 °F 73% 30.19 in 10.0 mi NW 10.4 mph 17.3 mph N/A   Scattered Clouds
3:15 PM 29.1 °F 20.0 °F 21.9 °F 74% 30.21 in 10.0 mi WNW 10.4 mph - N/A   Clear
3:35 PM 29.3 °F 20.8 °F 22.1 °F 75% 30.22 in 10.0 mi WNW 9.2 mph - N/A   Clear
3:55 PM 28.4 °F 19.1 °F 21.9 °F 77% 30.24 in 10.0 mi WNW 10.4 mph - N/A   Clear
4:15 PM 28.0 °F 17.5 °F 22.1 °F 78% 30.24 in 10.0 mi West 12.7 mph 17.3 mph N/A   Scattered Clouds
4:35 PM 26.4 °F 16.0 °F 21.6 °F 82% 30.25 in 10.0 mi West 11.5 mph - N/A   Scattered Clouds
4:55 PM 25.3 °F 16.0 °F 21.2 °F 84% 30.26 in 10.0 mi West 9.2 mph - N/A   Clear
5:15 PM 24.3 °F 15.4 °F 21.2 °F 88% 30.26 in 7.0 mi West 8.1 mph - N/A   Clear
6:15 PM 21.6 °F 13.0 °F 19.9 °F 93% 30.29 in 7.0 mi WSW 6.9 mph - N/A   Clear
6:35 PM 20.5 °F 15.6 °F 19.2 °F 95% 30.29 in 7.0 mi SW 3.5 mph - N/A   Clear
6:55 PM 20.1 °F 15.2 °F 19.0 °F 96% 30.30 in 7.0 mi WSW 3.5 mph - N/A   Clear
7:15 PM 19.2 °F 14.1 °F 18.1 °F 96% 30.29 in 7.0 mi SW 3.5 mph - N/A   Clear
7:35 PM 17.2 °F 10.2 °F 16.0 °F 95% 30.30 in 7.0 mi SW 4.6 mph - N/A   Clear
7:55 PM 17.2 °F 10.2 °F 16.3 °F 96% 30.30 in 7.0 mi SW 4.6 mph - N/A   Clear
8:15 PM 16.7 °F 7.2 °F 15.6 °F 96% 30.30 in 7.0 mi SW 6.9 mph - N/A   Clear
8:35 PM 15.8 °F 5.1 °F 14.5 °F 95% 30.30 in 7.0 mi SW 8.1 mph - N/A   Clear
8:55 PM 15.8 °F 7.2 °F 14.4 °F 94% 30.30 in 7.0 mi SW 5.8 mph - N/A   Clear
9:15 PM 16.2 °F 9.0 °F 14.7 °F 94% 30.31 in 10.0 mi WSW 4.6 mph - N/A   Clear
9:35 PM 15.4 °F 6.8 °F 13.8 °F 93% 30.31 in 10.0 mi SW 5.8 mph - N/A   Clear
10:15 PM 15.3 °F 7.9 °F 13.3 °F 92% 30.31 in 10.0 mi SW 4.6 mph - N/A   Clear
10:35 PM 13.1 °F 4.0 °F 11.3 °F 93% 30.31 in 10.0 mi SW 5.8 mph - N/A   Clear
10:55 PM 12.7 °F 2.4 °F 10.9 °F 92% 30.32 in 10.0 mi SW 6.9 mph - N/A   Clear
11:55 PM 10.9 °F 1.4 °F 9.0 °F 92% 30.31 in 10.0 mi South 5.8 mph - N/A   Clear